Location: Moy Burn
(57.3833°N, 4.0667°W)
Time: 09:12:18
(UTC+00:00)

Cosmos 2219 Rocket - Pass Details

Date: 08 August 2020
Orbit: 826 x 848 km, 71.0° (Epoch: 18 September)

Event Time Altitude Azimuth Distance (km) Brightness Sun altitude
Rises 21:42:24 0° 317° (NW) 3,411 7.7 -9.7°
Reaches altitude 10° 21:45:08 10° 327° (NNW) 2,477 6.3 -9.9°
Maximum altitude 21:50:12 32° 30° (NNE) 1,430 3.7 -10.4°
Drops below altitude 10° 21:55:16 10° 93° (E) 2,478 4.3 -10.8°
Enters shadow 21:56:59 - 100° (E) 3,058 4.7 -10.9°
